sat.trackr.live / text

‹ back to catalog

YAOGAN-10

NORAD 36834 · 2010-038A

PAYLOAD ACTIVE UNKNOWN

§ Identity

Operator
Country
PRC
Launch date
2010-08-09
Launch site
TAISC
Launch vehicle
Mass (kg)
RCS (m²)
4.80

Purposes: earth_obs

External: N2YO · Heavens-Above · Gunter

§ Orbital elements

Epoch: 2026-09-20T04:46:50.375424Z

Period
96.93 min
Inclination
97.8955°
Eccentricity
0.0001591
Mean motion
14.85588895 rev/d
Perigee alt
610.6 km
Apogee alt
612.9 km
Semi-major
6,989.9 km
B*
1.1863e-4
RAAN
285.8466°
Arg perigee
89.0813°
Mean anomaly
1.8838°
Rev number
87,131

§ Raw data

YAOGAN-101 36834U 10038A   26263.19919416  .00000972  00000+0  11863-3 0  99942 36834  97.8955 285.8466 0001591  89.0813   1.8838 14.85588895871312

JSON: /api/v1/satellites/36834 · /tle

For live sub-satellite position, see the globe view (requires WebGL).

§ Visibility from observer

Set your observer location to see the next 7 days of passes ≥ 10°. The values pass through the URL so the page stays shareable.

No JS? Fill the form by hand. The geolocation button needs JavaScript.

§ Radio — SatNOGS DB

ModeDescriptionDownlinkUplink
FM S-band telemetry 2.254 GHz
FM S-band telemetry 2.238 GHz

2 transmitters · refreshed weekly from db.satnogs.org